DW3765 Weather Reports


Display with metric or nautical units.
time (UTC)temp
F
wind
direction
speed
MPH
gust
MPH
rain 1hr
in
rain 24hr
in
rain mn
in
humidity
%
barometer
mb
20221003211130 85 39 5.0 8.0 0.00 0.00 0.00 23 1018.9
20221003210649 85 346 1.0 8.0 0.00 0.00 0.00 23 1018.8
20221003210219 85 5 2.0 6.0 0.00 0.00 0.00 23 1018.9
20221003205631 84 176 2.0 7.0 0.00 0.00 0.00 24 1018.9
20221003205150 83 147 2.0 9.0 0.00 0.00 0.00 24 1019.0
20221003204719 84 104 4.0 9.0 0.00 0.00 0.00 23 1018.9
20221003204135 84 92 3.0 11.0 0.00 0.00 0.00 24 1018.9
20221003203707 84 65 5.0 11.0 0.00 0.00 0.00 24 1019.0
20221003203223 83 95 2.0 10.0 0.00 0.00 0.00 24 1019.0
20221003202732 84 218 4.0 10.0 0.00 0.00 0.00 23 1019.1
20221003202124 83 315 4.0 10.0 0.00 0.00 0.00 25 1019.2
20221003201644 83 41 4.0 9.0 0.00 0.00 0.00 24 1019.3
20221003201147 83 102 1.0 9.0 0.00 0.00 0.00 24 1019.3
20221003200147 83 51 4.0 10.0 0.00 0.00 0.00 25 1019.3
20221003195705 83 33 6.0 10.0 0.00 0.00 0.00 25 1019.3
20221003195235 82 176 2.0 7.0 0.00 0.00 0.00 26 1019.4
20221003194708 82 126 1.0 7.0 0.00 0.00 0.00 26 1019.6
20221003193647 82 64 7.0 13.0 0.00 0.00 0.00 26 1019.8
20221003193205 85 88 8.0 13.0 0.00 0.00 0.00 25 1019.8
20221003192629 84 227 2.0 7.0 0.00 0.00 0.00 27 1019.9
20221003192147 83 294 5.0 7.0 0.00 0.00 0.00 27 1019.9
20221003191148 83 53 5.0 11.0 0.00 0.00 0.00 27 1020.2
20221003190645 83 80 5.0 11.0 0.00 0.00 0.00 27 1020.4
20221003190149 82 98 5.0 8.0 0.00 0.00 0.00 27 1020.4
20221003185646 82 111 6.0 8.0 0.00 0.00 0.00 28 1020.4
20221003185146 82 37 0.0 8.0 0.00 0.00 0.00 28 1020.6
20221003184718 82 61 5.0 9.0 0.00 0.00 0.00 27 1020.8
20221003184215 82 60 5.0 11.0 0.00 0.00 0.00 28 1020.9
20221003183640 82 146 3.0 11.0 0.00 0.00 0.00 28 1020.9
20221003183158 82 61 5.0 10.0 0.00 0.00 0.00 28 1021.0
20221003182706 82 129 6.0 10.0 0.00 0.00 0.00 28 1021.0
20221003182221 83 168 4.0 9.0 0.00 0.00 0.00 28 1021.1
20221003181639 83 104 5.0 11.0 0.00 0.00 0.00 28 1021.1
20221003180639 81 90 2.0 6.0 0.00 0.00 0.00 29 1021.3
20221003175744 81 48 6.0 11.0 0.00 0.00 0.00 29 1021.5
20221003175136 80 235 3.0 11.0 0.00 0.00 0.00 30 1021.5
20221003174700 81 129 2.0 11.0 0.00 0.00 0.00 29 1021.5
20221003174222 81 86 4.0 12.0 0.00 0.00 0.00 29 1021.7
20221003173710 81 61 6.0 10.0 0.00 0.00 0.00 29 1021.7
20221003172704 80 53 6.0 11.0 0.00 0.00 0.00 30 1022.1
20221003172126 80 128 5.0 9.0 0.00 0.00 0.00 30 1022.0
20221003171749 80 92 2.0 10.0 0.00 0.00 0.00 30 1021.9
20221003171208 80 71 5.0 10.0 0.00 0.00 0.00 29 1022.0
20221003170717 80 13 1.0 11.0 0.00 0.00 0.00 29 1022.0
20221003170211 80 119 6.0 11.0 0.00 0.00 0.00 29 1022.2
20221003165724 81 119 3.0 10.0 0.00 0.00 0.00 29 1022.2
20221003165229 81 92 5.0 10.0 0.00 0.00 0.00 30 1022.2
20221003164709 80 55 3.0 7.0 0.00 0.00 0.00 31 1022.2
20221003164125 80 148 5.0 9.0 0.00 0.00 0.00 30 1022.5
20221003163651 81 137 4.0 9.0 0.00 0.00 0.00 30 1022.5
20221003163209 81 324 1.0 5.0 0.00 0.00 0.00 31 1022.5
20221003162628 80 55 3.0 7.0 0.00 0.00 0.00 31 1022.7
20221003162146 80 82 3.0 7.0 0.00 0.00 0.00 31 1022.6
20221003161715 78 26 1.0 9.0 0.00 0.00 0.00 34 1022.6
20221003161232 78 46 6.0 9.0 0.00 0.00 0.00 33 1022.6
20221003160730 78 312 3.0 8.0 0.00 0.00 0.00 34 1022.5
20221003160132 79 14 5.0 8.0 0.00 0.00 0.00 34 1022.6
20221003155654 77 51 2.0 7.0 0.00 0.00 0.00 36 1022.8
20221003155223 76 10 4.0 8.0 0.00 0.00 0.00 37 1022.8
20221003154723 76 67 2.0 8.0 0.00 0.00 0.00 37 1022.9
20221003154149 76 25 2.0 6.0 0.00 0.00 0.00 39 1022.8
20221003153138 75 346 3.0 6.0 0.00 0.00 0.00 40 1022.7
20221003152709 75 339 2.0 6.0 0.00 0.00 0.00 40 1022.6
20221003152124 75 336 2.0 7.0 0.00 0.00 0.00 40 1022.6
20221003151654 74 5 4.0 7.0 0.00 0.00 0.00 40 1022.7
20221003151150 74 355 4.0 8.0 0.00 0.00 0.00 41 1022.8
20221003150148 72 11 4.0 8.0 0.00 0.00 0.00 44 1022.7
20221003145709 71 345 5.0 7.0 0.00 0.00 0.00 45 1022.8
20221003145134 70 338 4.0 6.0 0.00 0.00 0.00 45 1022.8
20221003144654 69 306 1.0 6.0 0.00 0.00 0.00 48 1022.6
20221003144222 69 306 3.0 6.0 0.00 0.00 0.00 48 1022.6
20221003143740 69 322 2.0 5.0 0.00 0.00 0.00 49 1022.6
20221003143128 67 328 2.0 5.0 0.00 0.00 0.00 54 1022.4
20221003142658 65 322 1.0 5.0 0.00 0.00 0.00 55 1022.4
20221003142218 65 322 2.0 5.0 0.00 0.00 0.00 56 1022.4
20221003141643 63 321 1.0 4.0 0.00 0.00 0.00 59 1022.4
20221003141203 62 321 0.0 1.0 0.00 0.00 0.00 62 1022.3
20221003140709 61 321 0.0 4.0 0.00 0.00 0.00 63 1022.3
20221003140228 61 321 0.0 5.0 0.00 0.00 0.00 64 1022.4
20221003135712 60 321 2.0 5.0 0.00 0.00 0.00 64 1022.4
20221003135127 59 321 2.0 3.0 0.00 0.00 0.00 66 1022.4
20221003134631 59 321 0.0 1.0 0.00 0.00 0.00 66 1022.4
20221003134149 58 321 0.0 1.0 0.00 0.00 0.00 67 1022.2
20221003133701 58 321 0.0 0.0 0.00 0.00 0.00 68 1022.2
20221003133230 58 321 0.0 0.0 0.00 0.00 0.00 68 1022.3
20221003132629 58 321 0.0 2.0 0.00 0.00 0.00 69 1022.2
20221003132159 57 321 0.0 2.0 0.00 0.00 0.00 68 1022.1
20221003131657 57 321 0.0 2.0 0.00 0.00 0.00 68 1022.1
20221003131227 57 321 0.0 2.0 0.00 0.00 0.00 67 1022.1
20221003130724 57 321 1.0 4.0 0.00 0.00 0.00 67 1022.2
20221003130200 57 321 1.0 4.0 0.00 0.00 0.00 67 1021.9
20221003125623 57 321 2.0 4.0 0.00 0.00 0.00 67 1021.8
20221003125228 57 321 2.0 4.0 0.00 0.00 0.00 67 1021.8
20221003124648 57 321 0.0 0.0 0.00 0.00 0.00 67 1021.5
20221003124148 57 321 0.0 2.0 0.00 0.00 0.00 67 1021.5
20221003123657 57 321 0.0 2.0 0.00 0.00 0.00 67 1021.5
20221003123158 57 321 1.0 2.0 0.00 0.00 0.00 67 1021.6
20221003122654 57 321 0.0 4.0 0.00 0.00 0.00 67 1021.5
20221003122205 57 321 2.0 3.0 0.00 0.00 0.00 67 1021.4
20221003121732 57 321 2.0 3.0 0.00 0.00 0.00 67 1021.4
20221003121650 57 321 2.0 3.0 0.00 0.00 0.00 67 1021.4
20221003120625 56 321 3.0 4.0 0.00 0.00 0.00 68 1021.4
20221003120226 56 321 2.0 4.0 0.00 0.00 0.00 68 1021.4
20221003115732 56 321 0.0 0.0 0.00 0.00 0.00 68 1021.5
20221003115214 57 321 0.0 0.0 0.00 0.00 0.00 68 1021.4
20221003114743 57 321 0.0 2.0 0.00 0.00 0.00 67 1021.4
20221003114223 57 321 0.0 2.0 0.00 0.00 0.00 67 1021.3
20221003011655 70 61 0.0 0.0 0.00 0.00 0.00 46 1020.6